Wind_Speed
29 31 32 32 32 33 33 34 35 36 37 39 41 41 40 41 41 42 42 42 42 43 43 43 43 42 42 42 43 44 44 45 45 44 44 43 42 42 41 40 40 38 38 38
28 28 29 31 32 32 33 33 33 34 36 38 39 40 40 40 40 41 40 41 42 42 42 42 43 43 42 42 43 43 43 45 45 45 45 44 43 43 42 41 40 40 39 39
28 28 28 29 30 31 31 32 33 33 34 37 38 39 39 39 39 39 39 40 40 40 41 41 41 42 42 42 43 42 43 44 45 45 45 44 43 43 43 43 41 40 40 40
27 27 27 28 29 30 30 31 32 32 33 34 35 39 37 38 38 38 39 39 39 40 40 40 40 41 41 42 42 42 42 43 44 45 45 44 44 43 43 43 42 41 40 41
26 26 26 26 27 28 28 28 30 30 31 33 33 37 37 37 37 38 38 38 38 38 38 38 38 40 41 41 42 42 42 42 43 44 44 44 44 43 43 43 42 41 40 41
24 25 24 24 25 26 26 27 28 29 30 32 30 33 35 35 35 35 35 36 37 37 38 37 37 38 39 40 42 43 42 42 42 42 43 43 44 44 44 43 42 41 41 41
23 23 23 23 24 23 24 25 26 27 30 31 29 30 31 32 32 32 32 32 34 35 36 36 36 35 37 40 41 41 42 42 40 40 41 43 43 44 44 44 44 42 41 42
23 21 22 22 22 22 22 23 24 26 28 28 28 30 29 28 29 30 30 32 33 34 35 35 34 35 36 38 40 40 40 40 40 40 39 41 42 43 44 44 44 43 42 43
22 21 20 21 21 21 21 21 22 23 24 24 25 26 25 24 25 26 27 28 31 33 34 33 33 33 35 37 38 40 40 39 39 38 39 39 40 42 43 44 44 43 43 42
21 21 21 21 22 21 21 21 21 21 22 21 21 20 20 21 23 23 24 25 27 29 30 30 31 32 32 35 37 38 39 38 38 38 38 38 39 40 41 42 43 43 43 42
21 21 21 21 21 21 21 21 21 22 22 22 23 22 20 20 20 21 21 22 25 27 27 28 30 31 32 34 36 37 38 38 37 37 38 38 39 39 39 40 42 42 43 43
21 22 21 21 20 19 20 19 20 21 21 22 23 21 19 20 21 20 21 21 22 24 26 27 28 30 32 34 36 37 37 37 37 37 38 39 39 39 39 39 40 42 43 43
20 21 21 20 19 19 19 19 19 20 21 21 20 18 18 18 19 19 21 22 23 24 25 26 28 30 31 33 36 36 37 37 37 37 38 38 38 38 38 38 39 41 42 43
19 19 19 20 19 19 19 19 20 21 22 22 20 19 18 18 19 20 22 23 24 25 25 27 28 30 31 33 34 35 36 36 37 37 38 38 37 38 39 40 40 40 41 41
18 18 18 19 19 18 19 19 20 21 21 22 21 20 17 19 20 21 22 22 23 24 25 26 28 29 30 32 34 35 35 36 37 38 38 39 40 39 39 39 40 40 40 40
18 18 18 18 18 18 19 18 18 19 19 19 19 19 18 20 20 20 21 21 21 23 24 25 26 28 30 32 34 34 35 36 36 38 39 38 38 39 40 39 39 39 39 39
17 18 18 17 17 17 17 16 16 16 17 18 18 18 19 19 19 20 21 22 22 23 24 25 26 28 29 31 32 33 34 36 36 36 37 37 38 39 39 39 39 39 39 39
17 17 18 17 16 16 15 15 15 16 15 16 17 18 18 19 20 21 22 23 23 23 24 26 27 27 28 29 30 31 32 34 36 37 37 37 37 38 39 39 39 38 38 37
17 17 18 18 18 17 15 15 15 16 16 16 17 18 18 19 19 20 21 22 23 24 24 25 26 27 27 28 29 30 32 33 35 36 37 36 36 36 37 38 38 38 37 37
17 18 18 18 19 19 17 17 17 17 17 17 18 18 19 19 19 19 21 21 22 23 24 25 25 26 26 27 28 30 30 31 33 33 34 35 35 36 37 37 37 37 37 37
18 19 19 19 19 19 18 18 18 18 18 18 18 19 19 19 20 21 21 22 22 23 24 25 25 26 27 27 27 28 29 30 30 31 33 34 34 35 36 37 37 36 37 37
18 19 20 20 20 19 19 20 20 20 20 20 20 20 20 20 21 22 22 23 23 22 23 24 24 25 27 28 28 28 29 29 29 29 30 32 33 34 35 36 36 36 36 36
18 19 19 20 20 20 21 22 22 22 22 22 22 22 23 23 23 23 23 23 23 23 23 23 24 25 26 28 29 30 30 29 28 29 30 31 32 33 34 35 35 35 34 34
19 19 19 20 20 21 21 22 22 23 23 23 23 23 23 23 23 23 23 23 23 23 23 24 24 25 26 27 28 29 29 29 30 30 30 31 32 32 33 33 34 33 34 34
19 20 20 21 21 22 22 22 23 23 23 22 22 23 23 24 23 23 23 23 23 24 24 24 25 25 26 26 27 28 29 29 30 30 30 30 31 32 33 33 34 35 35 34
20 21 22 22 22 22 22 23 23 23 23 23 23 23 23 24 24 23 23 23 24 24 25 25 25 26 27 27 27 27 28 27 28 29 29 29 30 31 32 32 33 33 33 33
Wind_Direction
272 269 268 267 267 267 266 265 263 260 259 258 256 254 252 250 250 248 248 247 248 245 244 244 244 244 245 245 245 244 244 243 242 242 242 243 243 245 246 248 248 249 250 251
274 272 270 267 266 266 267 266 265 262 260 259 256 254 253 251 251 250 248 248 246 244 243 244 244 244 245 244 244 244 243 243 242 241 241 242 243 244 245 248 248 248 250 252
277 275 271 269 269 268 267 266 266 263 261 261 260 254 251 250 250 249 248 247 246 243 242 243 244 244 245 244 243 243 244 244 242 239 239 240 241 243 245 247 249 249 251 253
278 275 272 271 270 270 269 268 267 265 264 263 261 258 249 249 250 249 248 247 245 243 243 243 243 244 244 243 243 242 243 243 241 238 238 240 241 241 244 246 249 250 252 253
280 276 273 271 271 270 271 271 269 268 267 264 260 260 253 251 250 251 249 246 244 243 242 243 243 243 242 241 241 241 243 242 240 237 238 240 241 242 244 246 249 252 254 255
281 277 274 273 271 270 271 270 269 268 267 265 263 262 257 252 253 253 251 247 244 243 240 241 242 242 242 240 240 241 241 240 239 237 237 239 241 242 244 246 249 253 254 254
281 278 276 274 272 271 271 271 271 269 266 265 262 263 262 256 256 255 253 249 246 243 241 240 241 241 240 239 239 239 240 239 238 239 239 240 241 243 245 246 249 251 253 254
283 279 277 277 275 273 272 272 271 273 272 269 264 266 265 261 258 257 256 252 248 245 242 241 241 242 240 238 238 238 238 237 238 240 240 240 242 243 245 247 248 251 253 254
282 281 278 277 276 275 275 274 272 271 272 275 271 269 266 263 257 257 256 254 249 245 243 242 241 242 240 238 237 237 236 236 238 240 240 242 243 245 246 247 248 250 252 253
280 282 281 278 275 274 274 274 272 271 274 277 276 274 271 267 263 260 256 251 247 243 241 241 241 241 239 236 236 235 235 236 239 240 242 244 245 246 247 248 249 251 252 253
279 282 284 281 279 277 273 270 268 268 272 276 275 276 275 271 268 263 259 252 245 241 241 239 238 238 238 236 234 233 236 239 240 241 243 246 246 247 248 251 251 251 252 253
279 282 285 283 279 276 274 270 266 267 272 275 277 276 274 273 270 264 257 251 247 244 242 239 240 240 239 237 235 236 239 240 241 243 245 247 248 248 250 252 253 253 254 254
280 282 283 280 277 275 273 269 266 268 272 275 277 275 271 269 264 260 256 254 251 248 245 241 240 241 241 239 237 238 239 239 242 245 248 250 250 250 251 252 254 256 256 256
277 280 281 280 280 278 276 274 269 269 272 273 276 276 269 266 265 263 261 257 253 251 249 246 244 245 244 242 240 241 241 242 245 247 247 249 251 252 254 254 255 256 256 258
278 279 280 279 278 277 276 274 273 271 270 273 273 273 266 265 263 261 260 260 256 253 250 251 249 248 248 245 243 244 245 246 248 249 250 250 252 254 255 255 255 256 258 258
278 279 280 279 280 277 275 276 274 271 269 271 270 271 268 264 265 261 261 262 261 258 255 254 251 249 248 246 245 245 247 249 251 251 251 252 252 254 256 258 257 258 260 261
278 279 280 279 280 280 280 278 275 275 273 270 269 268 267 267 266 264 263 264 264 258 256 256 256 252 249 248 249 248 249 252 252 251 252 252 254 256 257 258 259 259 261 262
279 279 279 279 278 280 280 276 274 276 277 274 271 269 269 270 270 270 270 269 264 260 259 258 256 254 252 250 250 251 252 252 252 252 253 254 254 255 257 258 260 262 261 260
278 278 277 277 277 277 276 274 275 278 278 278 276 274 275 275 272 273 273 271 268 265 262 259 258 257 256 254 253 253 254 255 255 255 254 254 255 256 258 259 260 262 262 262
277 276 276 277 277 278 276 275 277 278 278 277 277 278 279 279 275 274 273 271 269 265 262 262 261 260 259 257 255 255 256 257 258 257 256 256 257 258 259 262 263 263 262 263
277 275 275 275 275 276 275 274 276 277 278 276 276 276 278 279 277 274 272 270 268 268 266 266 264 263 261 260 260 261 261 261 261 260 258 259 258 259 259 261 262 262 261 262
278 277 274 274 274 274 273 273 274 275 275 276 276 275 277 280 279 277 275 273 269 268 269 268 266 265 264 264 264 264 265 264 263 263 262 261 260 261 261 261 261 262 262 262
279 279 278 276 276 274 272 271 273 274 274 274 273 273 275 279 278 275 275 274 271 269 269 270 269 268 268 268 267 267 266 264 263 265 266 266 265 264 263 262 262 263 262 262
279 280 279 278 277 276 273 272 272 273 274 274 273 273 275 278 279 276 274 274 273 274 273 272 271 271 271 270 270 268 266 264 265 267 268 268 268 267 265 263 262 261 262 263
278 280 281 280 280 277 276 274 274 274 273 273 274 274 275 276 277 276 274 273 273 275 275 274 273 272 271 271 270 269 268 268 268 268 269 269 268 267 266 265 262 261 261 262
277 279 281 282 282 281 279 277 275 274 272 272 273 274 274 274 274 275 274 273 273 274 275 274 272 271 271 272 271 269 267 267 268 269 268 268 268 266 266 265 263 262 261 260
Height
5673 5673 5672 5672 5671 5670 5669 5669 5670 5671 5670 5670 5671 5673 5675 5677 5678 5680 5682 5685 5688 5691 5694 5697 5700 5704 5707 5710 5713 5716 5720 5724 5727 5731 5736 5739 5743 5746 5749 5751 5753 5755 5757 5759
5665 5664 5664 5662 5661 5660 5660 5659 5660 5661 5660 5659 5660 5662 5665 5666 5667 5670 5672 5674 5676 5679 5683 5686 5689 5692 5695 5698 5701 5705 5708 5712 5715 5720 5725 5729 5733 5736 5739 5742 5744 5746 5748 5750
5657 5657 5655 5653 5652 5651 5651 5650 5650 5650 5650 5649 5649 5651 5655 5656 5657 5659 5661 5663 5665 5668 5672 5675 5678 5681 5684 5687 5690 5694 5697 5700 5704 5708 5713 5718 5722 5726 5729 5732 5735 5737 5739 5741
5649 5648 5646 5645 5644 5642 5642 5642 5641 5640 5639 5639 5640 5639 5645 5646 5647 5649 5651 5653 5655 5658 5661 5664 5667 5670 5673 5676 5679 5683 5686 5689 5693 5697 5702 5707 5712 5716 5720 5723 5725 5727 5729 5732
5642 5640 5638 5637 5637 5635 5634 5633 5632 5631 5630 5630 5630 5629 5635 5636 5637 5639 5641 5642 5645 5647 5650 5653 5656 5659 5662 5665 5668 5672 5675 5678 5682 5687 5692 5697 5702 5706 5709 5712 5715 5718 5720 5722
5635 5633 5631 5630 5629 5628 5626 5626 5625 5623 5622 5622 5623 5621 5623 5626 5628 5630 5631 5632 5634 5637 5640 5642 5645 5648 5651 5653 5657 5661 5664 5668 5672 5677 5682 5687 5692 5695 5699 5702 5705 5708 5710 5712
5629 5627 5625 5623 5622 5621 5620 5619 5617 5616 5614 5614 5615 5612 5614 5618 5619 5620 5621 5622 5625 5627 5629 5632 5635 5638 5640 5643 5647 5651 5654 5658 5663 5667 5672 5677 5682 5685 5689 5693 5696 5698 5700 5702
5622 5621 5619 5617 5616 5615 5613 5613 5612 5610 5608 5608 5607 5605 5608 5611 5611 5611 5612 5614 5615 5617 5619 5622 5625 5628 5631 5634 5638 5641 5645 5650 5654 5658 5663 5667 5672 5675 5679 5683 5686 5688 5690 5692
5615 5615 5614 5612 5610 5609 5608 5607 5606 5604 5603 5602 5601 5601 5602 5603 5603 5604 5605 5606 5607 5609 5611 5614 5617 5619 5622 5626 5629 5633 5637 5642 5646 5650 5655 5659 5662 5666 5669 5673 5676 5678 5680 5682
5609 5608 5607 5606 5605 5604 5603 5601 5600 5598 5597 5596 5596 5596 5598 5597 5597 5598 5599 5599 5600 5601 5603 5606 5609 5612 5614 5618 5622 5626 5630 5635 5639 5643 5647 5650 5654 5656 5660 5663 5665 5668 5670 5672
5604 5603 5602 5600 5599 5598 5597 5597 5595 5593 5593 5592 5591 5594 5593 5592 5592 5592 5593 5593 5594 5595 5597 5599 5602 5604 5607 5610 5614 5618 5623 5627 5631 5635 5639 5642 5645 5648 5650 5653 5656 5658 5660 5661
5598 5597 5596 5596 5594 5593 5592 5591 5590 5589 5589 5587 5586 5590 5588 5588 5587 5587 5588 5588 5589 5590 5591 5593 5595 5598 5601 5604 5607 5611 5616 5620 5624 5627 5630 5634 5636 5639 5641 5644 5646 5647 5649 5651
5593 5592 5591 5590 5592 5589 5587 5587 5585 5584 5583 5582 5582 5586 5583 5583 5582 5582 5582 5583 5583 5584 5586 5587 5589 5592 5594 5597 5600 5604 5608 5612 5616 5619 5622 5624 5627 5629 5632 5634 5636 5637 5639 5640
5588 5587 5587 5586 5584 5583 5582 5582 5581 5579 5578 5578 5578 5579 5580 5578 5577 5577 5577 5577 5577 5578 5580 5581 5583 5585 5587 5590 5593 5596 5600 5603 5607 5610 5612 5614 5617 5620 5622 5624 5625 5626 5628 5629
5583 5583 5581 5580 5579 5578 5578 5577 5576 5575 5574 5573 5574 5573 5573 5572 5571 5571 5571 5571 5571 5572 5573 5574 5576 5578 5580 5582 5585 5588 5591 5595 5598 5600 5603 5605 5608 5610 5612 5614 5615 5616 5617 5618
5578 5578 5577 5576 5575 5573 5572 5572 5571 5570 5569 5568 5567 5567 5567 5566 5565 5565 5565 5565 5565 5566 5566 5567 5568 5570 5572 5574 5577 5580 5583 5586 5588 5591 5593 5595 5598 5600 5602 5604 5605 5606 5607 5607
5573 5573 5572 5571 5570 5568 5568 5568 5566 5565 5565 5564 5563 5563 5562 5561 5560 5560 5560 5559 5559 5559 5560 5561 5561 5562 5564 5567 5569 5572 5574 5577 5579 5581 5583 5586 5588 5590 5592 5593 5594 5596 5596 5597
5569 5567 5566 5565 5565 5564 5566 5562 5561 5561 5560 5559 5558 5557 5557 5556 5555 5555 5554 5553 5553 5553 5554 5554 5554 5556 5557 5559 5561 5563 5565 5567 5569 5572 5574 5576 5578 5580 5582 5583 5584 5585 5586 5587
5564 5562 5561 5560 5559 5559 5560 5558 5557 5556 5556 5555 5553 5553 5552 5551 5550 5550 5548 5547 5547 5547 5547 5547 5548 5549 5551 5552 5553 5555 5557 5558 5560 5561 5563 5566 5568 5570 5571 5573 5574 5575 5576 5577
5558 5557 5557 5555 5554 5554 5556 5553 5551 5552 5551 5550 5549 5548 5547 5545 5545 5545 5543 5542 5541 5540 5541 5541 5542 5543 5544 5545 5546 5547 5548 5549 5551 5552 5554 5556 5558 5560 5561 5563 5564 5565 5566 5566
5553 5552 5551 5550 5548 5548 5550 5548 5547 5547 5547 5545 5543 5542 5541 5540 5539 5539 5537 5536 5535 5535 5534 5534 5535 5536 5537 5537 5538 5539 5540 5541 5542 5543 5544 5546 5547 5549 5550 5552 5553 5554 5555 5555
5547 5546 5545 5544 5543 5545 5543 5542 5541 5541 5539 5538 5537 5536 5535 5534 5532 5531 5531 5530 5529 5529 5528 5528 5528 5529 5529 5530 5530 5531 5532 5532 5533 5534 5535 5536 5537 5538 5540 5541 5542 5543 5544 5545
5541 5541 5539 5539 5539 5537 5536 5535 5534 5533 5532 5531 5530 5530 5528 5527 5526 5525 5524 5524 5523 5522 5521 5521 5521 5522 5522 5522 5522 5523 5523 5523 5524 5525 5526 5526 5527 5528 5529 5530 5531 5532 5534 5535
5535 5533 5532 5531 5531 5530 5529 5528 5527 5526 5525 5524 5523 5522 5522 5521 5519 5518 5517 5517 5516 5515 5514 5514 5514 5514 5514 5513 5514 5514 5514 5515 5515 5516 5516 5517 5517 5518 5519 5519 5521 5522 5523 5524
5528 5527 5525 5524 5524 5523 5522 5521 5520 5519 5518 5517 5516 5515 5514 5513 5512 5511 5511 5510 5509 5508 5507 5507 5506 5506 5506 5506 5506 5505 5506 5506 5506 5507 5507 5507 5507 5508 5509 5509 5510 5511 5513 5514
5521 5520 5519 5518 5517 5516 5515 5513 5512 5511 5510 5509 5509 5508 5507 5506 5505 5504 5504 5503 5502 5501 5500 5499 5498 5498 5498 5498 5498 5497 5497 5497 5497 5497 5498 5498 5498 5498 5499 5499 5500 5500 5501 5502